| time (UTC) | temp F | wind direction | speed knots | gust knots | rain 1hr in | rain 24hr in | rain mn in | humidity % | barometer mb |
| 20260505112546 | 39 | 278 | 4.3 | 6.1 | 0.00 | 0.00 | 0.00 | 95 | 1011.8 |
| 20260505112044 | 40 | 33 | 0.9 | 0.9 | 0.00 | 0.00 | 0.00 | 95 | 1011.8 |
| 20260505111538 | 40 | 238 | 0.9 | 1.7 | 0.00 | 0.00 | 0.00 | 94 | 1011.9 |
| 20260505111035 | 40 | 77 | 0.0 | 0.0 | 0.00 | 0.00 | 0.00 | 95 | 1011.7 |
| 20260505110531 | 40 | 2 | 0.9 | 1.7 | 0.00 | 0.00 | 0.00 | 95 | 1011.5 |
| 20260505102004 | 42 | 205 | 0.9 | 0.9 | 0.00 | 0.00 | 0.00 | 97 | 1010.5 |
| 20260505101502 | 42 | 123 | 0.9 | 1.7 | 0.00 | 0.00 | 0.00 | 97 | 1010.3 |
| 20260505100958 | 42 | 282 | 1.7 | 1.7 | 0.00 | 0.00 | 0.00 | 97 | 1009.9 |
| 20260505100455 | 42 | 306 | 0.9 | 1.7 | 0.00 | 0.00 | 0.00 | 97 | 1010.2 |
| 20260505095951 | 42 | 141 | 0.9 | 0.9 | 0.00 | 0.00 | 0.00 | 97 | 1010.4 |
| 20260505095448 | 42 | 10 | 0.9 | 1.7 | 0.00 | 0.00 | 0.00 | 97 | 1010.3 |
| 20260505094944 | 42 | 1 | 1.7 | 1.7 | 0.00 | 0.00 | 0.00 | 97 | 1010.4 |
| 20260505094441 | 43 | 98 | 2.6 | 4.3 | 0.00 | 0.00 | 0.00 | 97 | 1010.2 |
| 20260505093937 | 43 | 134 | 1.7 | 1.7 | 0.00 | 0.00 | 0.00 | 97 | 1010.4 |
| 20260505093434 | 44 | 5 | 1.7 | 1.7 | 0.00 | 0.00 | 0.00 | 97 | 1010.5 |
| 20260505092931 | 44 | 127 | 3.5 | 5.2 | 0.00 | 0.00 | 0.00 | 97 | 1010.3 |
| 20260505092429 | 46 | 27 | 0.9 | 1.7 | 0.00 | 0.00 | 0.00 | 97 | 1010.0 |
| 20260505091926 | 47 | 23 | 0.0 | 0.0 | 0.00 | 0.00 | 0.00 | 98 | 1010.2 |
| 20260505091423 | 47 | 115 | 0.0 | 0.0 | 0.00 | 0.00 | 0.00 | 98 | 1010.3 |
| 20260505090921 | 47 | 95 | 0.0 | 0.0 | 0.00 | 0.00 | 0.00 | 98 | 1010.2 |
| 20260505090420 | 47 | 60 | 0.0 | 0.0 | 0.00 | 0.00 | 0.00 | 98 | 1009.9 |
| 20260505085916 | 47 | 357 | 0.0 | 0.0 | 0.00 | 0.00 | 0.00 | 98 | 1009.9 |
| 20260505085414 | 47 | 345 | 0.0 | 0.0 | 0.00 | 0.00 | 0.00 | 98 | 1010.0 |
| 20260505084912 | 47 | 83 | 0.0 | 0.0 | 0.00 | 0.00 | 0.00 | 98 | 1010.0 |
| 20260505084410 | 47 | 320 | 0.0 | 0.0 | 0.00 | 0.00 | 0.00 | 98 | 1010.0 |
| 20260505083908 | 46 | 341 | 0.0 | 0.0 | 0.00 | 0.00 | 0.00 | 98 | 1010.0 |
| 20260505083405 | 46 | 67 | 0.0 | 0.0 | 0.00 | 0.00 | 0.00 | 98 | 1009.9 |
| 20260505082901 | 46 | 67 | 0.0 | 0.0 | 0.00 | 0.00 | 0.00 | 97 | 1010.2 |
| 20260505082357 | 46 | 67 | 0.0 | 0.0 | 0.00 | 0.00 | 0.00 | 97 | 1009.9 |
| 20260505081854 | 46 | 67 | 0.0 | 0.0 | 0.00 | 0.00 | 0.00 | 97 | 1009.6 |
| 20260505081351 | 46 | 67 | 0.0 | 0.0 | 0.00 | 0.00 | 0.00 | 97 | 1010.2 |
| 20260505080848 | 46 | 67 | 0.0 | 0.0 | 0.00 | 0.00 | 0.00 | 97 | 1010.0 |
| 20260505080344 | 46 | 67 | 0.0 | 0.0 | 0.00 | 0.00 | 0.00 | 97 | 1010.0 |
| 20260505075839 | 46 | 67 | 0.0 | 0.0 | 0.00 | 0.00 | 0.00 | 97 | 1010.0 |
| 20260505075336 | 46 | 67 | 0.0 | 0.0 | 0.00 | 0.00 | 0.00 | 97 | 1009.8 |
| 20260505074834 | 46 | 67 | 0.0 | 0.0 | 0.00 | 0.00 | 0.00 | 97 | 1010.2 |
| 20260505074331 | 46 | 67 | 0.0 | 0.0 | 0.00 | 0.00 | 0.00 | 97 | 1010.2 |
| 20260505073828 | 47 | 67 | 0.0 | 0.0 | 0.00 | 0.00 | 0.00 | 97 | 1009.9 |
| 20260505073326 | 47 | 67 | 0.0 | 0.0 | 0.00 | 0.00 | 0.00 | 97 | 1010.3 |
| 20260505072822 | 47 | 68 | 0.0 | 0.0 | 0.00 | 0.00 | 0.00 | 97 | 1010.5 |
| 20260505072319 | 47 | 68 | 0.0 | 0.0 | 0.00 | 0.00 | 0.00 | 97 | 1010.5 |
| 20260505071815 | 47 | 68 | 0.0 | 0.0 | 0.00 | 0.00 | 0.00 | 97 | 1010.5 |
| 20260505071312 | 47 | 72 | 0.0 | 0.0 | 0.00 | 0.00 | 0.00 | 97 | 1010.6 |
| 20260505070810 | 47 | 73 | 0.0 | 0.0 | 0.00 | 0.00 | 0.00 | 97 | 1010.6 |
| 20260505070306 | 47 | 107 | 0.0 | 0.0 | 0.00 | 0.00 | 0.00 | 97 | 1010.6 |
| 20260505065801 | 47 | 108 | 0.0 | 0.0 | 0.00 | 0.00 | 0.00 | 97 | 1010.5 |
| 20260505065258 | 47 | 107 | 0.0 | 0.0 | 0.00 | 0.00 | 0.00 | 97 | 1010.6 |
| 20260505064755 | 47 | 107 | 0.0 | 0.0 | 0.00 | 0.00 | 0.00 | 97 | 1010.6 |
| 20260505064252 | 47 | 75 | 0.0 | 0.0 | 0.00 | 0.00 | 0.00 | 97 | 1010.7 |
| 20260505063750 | 47 | 75 | 0.0 | 0.0 | 0.00 | 0.00 | 0.00 | 97 | 1010.7 |
| 20260505063246 | 47 | 75 | 0.0 | 0.0 | 0.00 | 0.00 | 0.00 | 97 | 1010.6 |
| 20260505062743 | 47 | 76 | 0.0 | 0.0 | 0.00 | 0.00 | 0.00 | 97 | 1011.0 |
| 20260505062240 | 47 | 77 | 0.0 | 0.0 | 0.00 | 0.00 | 0.00 | 97 | 1010.7 |
| 20260505061737 | 47 | 77 | 0.0 | 0.0 | 0.00 | 0.00 | 0.00 | 97 | 1011.0 |
| 20260505061235 | 47 | 75 | 0.0 | 0.0 | 0.00 | 0.00 | 0.00 | 97 | 1010.7 |
| 20260505060732 | 47 | 91 | 0.0 | 0.0 | 0.00 | 0.00 | 0.00 | 97 | 1010.6 |
| 20260505060229 | 47 | 108 | 0.0 | 0.0 | 0.00 | 0.00 | 0.00 | 96 | 1010.7 |
| 20260505055724 | 47 | 108 | 0.0 | 0.0 | 0.00 | 0.13 | 0.13 | 96 | 1010.9 |
| 20260505055221 | 46 | 108 | 0.0 | 0.0 | 0.00 | 0.13 | 0.13 | 96 | 1010.9 |
| 20260505054718 | 46 | 108 | 0.0 | 0.0 | 0.00 | 0.13 | 0.13 | 96 | 1011.1 |
| 20260505054216 | 46 | 108 | 0.0 | 0.0 | 0.00 | 0.13 | 0.13 | 96 | 1011.1 |
| 20260505053714 | 46 | 108 | 0.0 | 0.0 | 0.00 | 0.13 | 0.13 | 96 | 1010.5 |
| 20260505053210 | 46 | 108 | 0.0 | 0.0 | 0.00 | 0.13 | 0.13 | 96 | 1010.6 |
| 20260505052708 | 47 | 108 | 0.0 | 0.0 | 0.00 | 0.13 | 0.13 | 96 | 1010.9 |
| 20260505052204 | 47 | 108 | 0.0 | 0.0 | 0.00 | 0.13 | 0.13 | 95 | 1010.7 |
| 20260505051701 | 47 | 108 | 0.0 | 0.0 | 0.00 | 0.13 | 0.13 | 95 | 1010.6 |
| 20260505051159 | 47 | 108 | 0.0 | 0.0 | 0.00 | 0.13 | 0.13 | 95 | 1011.1 |
| 20260505050651 | 47 | 109 | 0.0 | 0.0 | 0.00 | 0.13 | 0.13 | 95 | 1011.3 |
| 20260505050149 | 47 | 109 | 0.0 | 0.0 | 0.07 | 0.13 | 0.13 | 95 | 1011.2 |
| 20260505041619 | 47 | 87 | 0.0 | 0.0 | 0.05 | 0.10 | 0.10 | 92 | 1011.3 |
| 20260505041117 | 47 | 87 | 0.0 | 0.0 | 0.07 | 0.09 | 0.09 | 92 | 1011.6 |
| 20260505040613 | 47 | 104 | 0.0 | 0.0 | 0.12 | 0.09 | 0.09 | 92 | 1011.6 |
| 20260505040110 | 48 | 66 | 0.0 | 0.0 | 0.05 | 0.08 | 0.08 | 91 | 1011.3 |
| 20260505035607 | 48 | 88 | 0.0 | 0.0 | 0.07 | 0.07 | 0.07 | 91 | 1011.3 |
| 20260505035103 | 48 | 108 | 0.0 | 0.0 | 0.07 | 0.07 | 0.07 | 90 | 1011.2 |
| 20260505034600 | 48 | 285 | 0.0 | 0.9 | 0.05 | 0.06 | 0.06 | 89 | 1011.3 |
| 20260505034056 | 48 | 173 | 0.9 | 0.9 | 0.12 | 0.06 | 0.06 | 88 | 1011.2 |
| 20260505033553 | 49 | 128 | 0.9 | 1.7 | 0.14 | 0.05 | 0.05 | 88 | 1011.1 |
| 20260505033052 | 49 | 158 | 0.0 | 0.0 | 0.12 | 0.04 | 0.04 | 87 | 1011.3 |
| 20260505032550 | 50 | 81 | 0.0 | 0.0 | 0.19 | 0.04 | 0.04 | 85 | 1011.1 |
| 20260505032045 | 50 | 125 | 0.0 | 0.9 | 0.12 | 0.02 | 0.02 | 81 | 1011.1 |
| 20260505031542 | 52 | 163 | 0.9 | 1.7 | 0.00 | 0.00 | 0.00 | 77 | 1010.9 |
| 20260505031039 | 53 | 123 | 0.0 | 0.0 | 0.00 | 0.00 | 0.00 | 70 | 1010.7 |
| 20260505030537 | 53 | 106 | 0.9 | 0.9 | 0.00 | 0.00 | 0.00 | 68 | 1010.5 |
| 20260505030032 | 53 | 102 | 0.0 | 0.0 | 0.00 | 0.00 | 0.00 | 63 | 1010.2 |
| 20260505025528 | 53 | 101 | 0.0 | 0.0 | 0.00 | 0.00 | 0.00 | 62 | 1009.9 |
| 20260505025027 | 54 | 101 | 0.0 | 0.0 | 0.00 | 0.00 | 0.00 | 62 | 1010.0 |
| 20260505024524 | 54 | 101 | 0.0 | 0.0 | 0.00 | 0.00 | 0.00 | 62 | 1009.8 |
| 20260505024021 | 53 | 101 | 0.0 | 0.0 | 0.00 | 0.00 | 0.00 | 62 | 1009.7 |
| 20260505023518 | 53 | 101 | 0.0 | 0.0 | 0.00 | 0.00 | 0.00 | 64 | 1009.6 |
| 20260505023016 | 53 | 101 | 0.0 | 0.0 | 0.00 | 0.00 | 0.00 | 64 | 1009.6 |
| 20260505022513 | 53 | 101 | 0.0 | 0.0 | 0.00 | 0.00 | 0.00 | 64 | 1009.6 |
| 20260505022010 | 53 | 101 | 0.0 | 0.0 | 0.00 | 0.00 | 0.00 | 63 | 1009.5 |
| 20260505021507 | 53 | 101 | 0.0 | 0.0 | 0.00 | 0.00 | 0.00 | 62 | 1009.3 |
| 20260505021003 | 53 | 101 | 0.0 | 0.0 | 0.00 | 0.00 | 0.00 | 62 | 1009.3 |
| 20260505020458 | 53 | 101 | 0.0 | 0.0 | 0.00 | 0.00 | 0.00 | 62 | 1009.6 |
| 20260505015954 | 53 | 101 | 0.0 | 0.0 | 0.00 | 0.00 | 0.00 | 62 | 1009.5 |
| 20260505015452 | 53 | 101 | 0.0 | 0.0 | 0.00 | 0.00 | 0.00 | 62 | 1009.5 |
| 20260505014949 | 53 | 101 | 0.0 | 0.0 | 0.00 | 0.00 | 0.00 | 62 | 1009.6 |
| 20260505014446 | 53 | 102 | 0.0 | 0.0 | 0.00 | 0.00 | 0.00 | 62 | 1009.5 |
| 20260505013943 | 54 | 102 | 0.0 | 0.0 | 0.00 | 0.00 | 0.00 | 62 | 1009.1 |
| 20260505013440 | 54 | 102 | 0.0 | 0.0 | 0.00 | 0.00 | 0.00 | 62 | 1009.0 |
| 20260505012937 | 54 | 101 | 0.0 | 0.0 | 0.00 | 0.00 | 0.00 | 62 | 1009.1 |
| 20260505012435 | 54 | 101 | 0.0 | 0.0 | 0.00 | 0.00 | 0.00 | 61 | 1009.1 |
| 20260505011931 | 55 | 101 | 0.0 | 0.0 | 0.00 | 0.00 | 0.00 | 60 | 1009.2 |
| 20260505011428 | 55 | 102 | 0.0 | 0.0 | 0.00 | 0.00 | 0.00 | 60 | 1009.2 |
| 20260505010925 | 55 | 97 | 0.0 | 0.0 | 0.00 | 0.00 | 0.00 | 58 | 1009.2 |
| 20260505010421 | 55 | 49 | 0.0 | 0.9 | 0.00 | 0.00 | 0.00 | 59 | 1008.9 |
| 20260505005917 | 55 | 315 | 1.7 | 1.7 | 0.00 | 0.00 | 0.00 | 60 | 1009.1 |
| 20260505005414 | 55 | 238 | 0.9 | 0.9 | 0.00 | 0.00 | 0.00 | 62 | 1009.2 |
| 20260505004911 | 57 | 300 | 2.6 | 4.3 | 0.00 | 0.00 | 0.00 | 56 | 1009.3 |
| 20260505004408 | 58 | 10 | 0.0 | 0.9 | 0.00 | 0.00 | 0.00 | 47 | 1009.3 |
| 20260505003905 | 58 | 96 | 0.9 | 0.9 | 0.00 | 0.00 | 0.00 | 46 | 1009.3 |
| 20260505003401 | 59 | 310 | 1.7 | 4.3 | 0.00 | 0.00 | 0.00 | 45 | 1009.2 |
| 20260505002858 | 59 | 16 | 0.9 | 0.9 | 0.00 | 0.00 | 0.00 | 44 | 1008.9 |
| 20260505002354 | 60 | 108 | 0.0 | 0.9 | 0.00 | 0.00 | 0.00 | 42 | 1009.1 |
| 20260505001853 | 60 | 137 | 0.0 | 0.0 | 0.00 | 0.00 | 0.00 | 41 | 1008.9 |
| 20260505001350 | 60 | 177 | 0.0 | 0.9 | 0.00 | 0.00 | 0.00 | 39 | 1008.7 |
| 20260505000847 | 60 | 352 | 0.9 | 0.9 | 0.00 | 0.00 | 0.00 | 39 | 1008.7 |
| 20260505000345 | 60 | 91 | 0.0 | 0.0 | 0.00 | 0.00 | 0.00 | 39 | 1008.6 |
| 20260504235841 | 60 | 88 | 0.0 | 0.0 | 0.00 | 0.00 | 0.00 | 38 | 1008.3 |
| 20260504235338 | 61 | 260 | 0.9 | 0.9 | 0.00 | 0.00 | 0.00 | 38 | 1008.2 |
| 20260504234835 | 61 | 312 | 0.9 | 1.7 | 0.00 | 0.00 | 0.00 | 38 | 1007.9 |
| 20260504234332 | 61 | 108 | 0.0 | 0.0 | 0.00 | 0.00 | 0.00 | 39 | 1007.7 |
| 20260504233829 | 61 | 14 | 1.7 | 1.7 | 0.00 | 0.00 | 0.00 | 38 | 1007.6 |
| 20260504233325 | 61 | 285 | 2.6 | 4.3 | 0.00 | 0.00 | 0.00 | 37 | 1007.5 |
| 20260504232822 | 62 | 321 | 1.7 | 4.3 | 0.00 | 0.00 | 0.00 | 37 | 1007.6 |
| 20260504232319 | 62 | 227 | 3.5 | 5.2 | 0.00 | 0.00 | 0.00 | 35 | 1007.5 |
| 20260504231816 | 62 | 344 | 1.7 | 2.6 | 0.00 | 0.00 | 0.00 | 33 | 1007.5 |
| 20260504231312 | 62 | 308 | 0.9 | 0.9 | 0.00 | 0.00 | 0.00 | 34 | 1007.7 |
| 20260504230808 | 62 | 9 | 1.7 | 1.7 | 0.00 | 0.00 | 0.00 | 33 | 1007.7 |
| 20260504230306 | 63 | 311 | 2.6 | 4.3 | 0.00 | 0.00 | 0.00 | 34 | 1007.1 |
| 20260504225805 | 63 | 89 | 2.6 | 5.2 | 0.00 | 0.00 | 0.00 | 33 | 1006.9 |
| 20260504225301 | 63 | 149 | 1.7 | 4.3 | 0.00 | 0.00 | 0.00 | 33 | 1007.1 |
| 20260504224758 | 63 | 298 | 1.7 | 2.6 | 0.00 | 0.00 | 0.00 | 32 | 1006.7 |
| 20260504224255 | 64 | 39 | 3.5 | 6.1 | 0.00 | 0.00 | 0.00 | 31 | 1007.0 |
| 20260504223751 | 64 | 2 | 1.7 | 5.2 | 0.00 | 0.00 | 0.00 | 31 | 1007.0 |
| 20260504223247 | 64 | 311 | 2.6 | 2.6 | 0.00 | 0.00 | 0.00 | 30 | 1007.0 |
| 20260504222744 | 64 | 294 | 1.7 | 1.7 | 0.00 | 0.00 | 0.00 | 30 | 1007.0 |
| 20260504222241 | 64 | 312 | 7.0 | 11.3 | 0.00 | 0.00 | 0.00 | 30 | 1006.9 |
| 20260504221739 | 65 | 306 | 3.5 | 5.2 | 0.00 | 0.00 | 0.00 | 29 | 1006.9 |
| 20260504221236 | 65 | 280 | 4.3 | 6.1 | 0.00 | 0.00 | 0.00 | 29 | 1007.0 |
| 20260504220732 | 67 | 278 | 6.1 | 9.6 | 0.00 | 0.00 | 0.00 | 27 | 1006.7 |
| 20260504220229 | 68 | 164 | 1.7 | 1.7 | 0.00 | 0.00 | 0.00 | 23 | 1007.0 |
| 20260504215726 | 68 | 321 | 3.5 | 6.1 | 0.00 | 0.00 | 0.00 | 22 | 1006.5 |
| 20260504215217 | 68 | 105 | 0.9 | 0.9 | 0.00 | 0.00 | 0.00 | 22 | 1006.5 |
| 20260504214713 | 69 | 332 | 2.6 | 2.6 | 0.00 | 0.00 | 0.00 | 22 | 1006.4 |
| 20260504214210 | 69 | 312 | 1.7 | 1.7 | 0.00 | 0.00 | 0.00 | 23 | 1006.5 |
| 20260504213707 | 70 | 85 | 0.9 | 0.9 | 0.00 | 0.00 | 0.00 | 23 | 1006.5 |
| 20260504213203 | 71 | 91 | 1.7 | 1.7 | 0.00 | 0.00 | 0.00 | 22 | 1006.5 |
| 20260504212700 | 70 | 306 | 1.7 | 1.7 | 0.00 | 0.00 | 0.00 | 24 | 1006.6 |
| 20260504212157 | 71 | 285 | 2.6 | 2.6 | 0.00 | 0.00 | 0.00 | 23 | 1006.7 |
| 20260504211654 | 71 | 31 | 3.5 | 4.3 | 0.00 | 0.00 | 0.00 | 23 | 1006.7 |
| 20260504211150 | 71 | 320 | 1.7 | 2.6 | 0.00 | 0.00 | 0.00 | 23 | 1006.7 |
| 20260504210648 | 71 | 89 | 0.9 | 0.9 | 0.00 | 0.00 | 0.00 | 24 | 1006.6 |
| 20260504210144 | 73 | 9 | 1.7 | 2.6 | 0.00 | 0.00 | 0.00 | 22 | 1006.7 |
| 20260504205642 | 74 | 239 | 1.7 | 1.7 | 0.00 | 0.00 | 0.00 | 23 | 1006.9 |
| 20260504205139 | 74 | 283 | 2.6 | 4.3 | 0.00 | 0.00 | 0.00 | 23 | 1006.9 |
| 20260504204637 | 73 | 35 | 0.9 | 0.9 | 0.00 | 0.00 | 0.00 | 23 | 1007.2 |
| 20260504204136 | 74 | 319 | 1.7 | 1.7 | 0.00 | 0.00 | 0.00 | 22 | 1007.2 |
| 20260504203634 | 73 | 69 | 0.0 | 0.9 | 0.00 | 0.00 | 0.00 | 22 | 1007.1 |
| 20260504203131 | 71 | 311 | 2.6 | 5.2 | 0.00 | 0.00 | 0.00 | 22 | 1007.2 |
| 20260504202631 | 72 | 279 | 1.7 | 4.3 | 0.00 | 0.00 | 0.00 | 22 | 1007.6 |
| 20260504202129 | 72 | 343 | 2.6 | 4.3 | 0.00 | 0.00 | 0.00 | 22 | 1007.6 |
| 20260504201625 | 71 | 207 | 1.7 | 2.6 | 0.00 | 0.00 | 0.00 | 24 | 1007.3 |
| 20260504201123 | 71 | 147 | 1.7 | 2.6 | 0.00 | 0.00 | 0.00 | 24 | 1007.3 |
| 20260504200620 | 71 | 316 | 1.7 | 2.6 | 0.00 | 0.00 | 0.00 | 24 | 1007.5 |
| 20260504200117 | 72 | 204 | 0.0 | 0.9 | 0.00 | 0.00 | 0.00 | 24 | 1007.8 |
| 20260504195612 | 71 | 197 | 2.6 | 2.6 | 0.00 | 0.00 | 0.00 | 24 | 1007.7 |
| 20260504195109 | 73 | 291 | 2.6 | 2.6 | 0.00 | 0.00 | 0.00 | 21 | 1007.6 |
| 20260504194606 | 72 | 277 | 1.7 | 1.7 | 0.00 | 0.00 | 0.00 | 22 | 1007.6 |
| 20260504194101 | 73 | 277 | 1.7 | 2.6 | 0.00 | 0.00 | 0.00 | 23 | 1007.5 |
| 20260504193558 | 73 | 98 | 1.7 | 2.6 | 0.00 | 0.00 | 0.00 | 23 | 1007.6 |
| 20260504193057 | 73 | 284 | 1.7 | 2.6 | 0.00 | 0.00 | 0.00 | 22 | 1007.6 |
| 20260504192555 | 75 | 346 | 1.7 | 1.7 | 0.00 | 0.00 | 0.00 | 22 | 1007.3 |
| 20260504192052 | 73 | 88 | 0.0 | 0.9 | 0.00 | 0.00 | 0.00 | 24 | 1007.6 |
| 20260504191550 | 74 | 193 | 1.7 | 4.3 | 0.00 | 0.00 | 0.00 | 22 | 1007.6 |
| 20260504191046 | 73 | 71 | 0.9 | 1.7 | 0.00 | 0.00 | 0.00 | 23 | 1007.8 |
| 20260504190542 | 71 | 126 | 0.0 | 0.9 | 0.00 | 0.00 | 0.00 | 27 | 1007.6 |
| 20260504190038 | 66 | 328 | 0.9 | 1.7 | 0.00 | 0.00 | 0.00 | 29 | 1007.7 |
| 20260504185536 | 66 | 192 | 0.9 | 1.7 | 0.00 | 0.00 | 0.00 | 28 | 1007.5 |
| 20260504185032 | 66 | 297 | 1.7 | 1.7 | 0.00 | 0.00 | 0.00 | 27 | 1007.8 |
| 20260504184527 | 66 | 216 | 0.9 | 1.7 | 0.00 | 0.00 | 0.00 | 26 | 1007.7 |
| 20260504184018 | 66 | 102 | 0.9 | 0.9 | 0.00 | 0.00 | 0.00 | 27 | 1007.8 |
| 20260504183515 | 66 | 304 | 4.3 | 6.1 | 0.00 | 0.00 | 0.00 | 24 | 1007.6 |
| 20260504183013 | 65 | 38 | 0.0 | 0.9 | 0.00 | 0.00 | 0.00 | 24 | 1007.6 |
| 20260504182509 | 66 | 312 | 3.5 | 5.2 | 0.00 | 0.00 | 0.00 | 25 | 1007.9 |
| 20260504182007 | 66 | 160 | 0.9 | 1.7 | 0.00 | 0.00 | 0.00 | 23 | 1008.0 |
| 20260504181504 | 67 | 116 | 2.6 | 2.6 | 0.00 | 0.00 | 0.00 | 22 | 1007.7 |
| 20260504181003 | 68 | 124 | 1.7 | 2.6 | 0.00 | 0.00 | 0.00 | 23 | 1007.6 |
| 20260504180501 | 69 | 87 | 0.0 | 0.0 | 0.00 | 0.00 | 0.00 | 22 | 1007.5 |
| 20260504175959 | 69 | 131 | 0.9 | 0.9 | 0.00 | 0.00 | 0.00 | 21 | 1007.3 |
| 20260504175456 | 69 | 72 | 0.0 | 0.0 | 0.00 | 0.00 | 0.00 | 22 | 1007.6 |
| 20260504174953 | 69 | 125 | 0.0 | 0.0 | 0.00 | 0.00 | 0.00 | 20 | 1007.7 |
| 20260504174450 | 69 | 102 | 0.0 | 0.0 | 0.00 | 0.00 | 0.00 | 22 | 1007.5 |
| 20260504173948 | 70 | 86 | 0.0 | 0.0 | 0.00 | 0.00 | 0.00 | 21 | 1007.2 |
| 20260504173443 | 70 | 151 | 1.7 | 1.7 | 0.00 | 0.00 | 0.00 | 20 | 1007.8 |
| 20260504172942 | 71 | 32 | 1.7 | 4.3 | 0.00 | 0.00 | 0.00 | 19 | 1007.6 |
| 20260504172437 | 72 | 14 | 1.7 | 1.7 | 0.00 | 0.00 | 0.00 | 19 | 1007.8 |
| 20260504171934 | 73 | 280 | 2.6 | 2.6 | 0.00 | 0.00 | 0.00 | 19 | 1007.7 |
| 20260504171431 | 72 | 75 | 0.9 | 0.9 | 0.00 | 0.00 | 0.00 | 20 | 1007.9 |
| 20260504170928 | 71 | 58 | 0.0 | 0.9 | 0.00 | 0.00 | 0.00 | 20 | 1007.8 |
| 20260504170425 | 72 | 90 | 0.0 | 0.0 | 0.00 | 0.00 | 0.00 | 25 | 1007.9 |
| 20260504160343 | 68 | 108 | 0.0 | 0.9 | 0.00 | 0.00 | 0.00 | 24 | 1008.6 |
| 20260504150808 | 64 | 136 | 0.9 | 0.9 | 0.00 | 0.00 | 0.00 | 25 | 1009.1 |
| 20260504150305 | 65 | 95 | 0.0 | 0.9 | 0.00 | 0.00 | 0.00 | 26 | 1009.1 |
| 20260504141229 | 58 | 101 | 0.9 | 0.9 | 0.00 | 0.00 | 0.00 | 33 | 1009.5 |
| 20260504140725 | 56 | 121 | 0.0 | 1.7 | 0.00 | 0.00 | 0.00 | 36 | 1009.2 |
| 20260504140221 | 53 | 344 | 0.0 | 0.9 | 0.00 | 0.00 | 0.00 | 41 | 1009.5 |
| 20260504130650 | 51 | 102 | 0.9 | 0.9 | 0.00 | 0.00 | 0.00 | 39 | 1009.0 |
| 20260504130146 | 48 | 111 | 0.9 | 0.9 | 0.00 | 0.00 | 0.00 | 42 | 1008.9 |
| 20260504120110 | 45 | 13 | 0.0 | 0.0 | 0.00 | 0.00 | 0.00 | 57 | 1008.6 |